Simultaneous Nadir Overpasses (SNOs) Predictions

Prediction of SNOs between FY3D and NOAA-19 Satellite Orbit:

Table of predicted SNOs for the next 14.0 days since TLE Epoch: 8/7/2020
Index Date (FY3D) Time (FY3D) Lat,Lon (FY3D) SZA (FY3D ) Date (NOAA-19) Time (NOAA-19) Lat,Lon (NOAA-19) SZA (NOAA-19 ) Distance(km) Time Diff (sec)
1 08/08/2020 06:05:07 79.22, 57.93 64.95 08/08/2020 06:03:53 79.21, 57.42 65.02 10.63 74
2 08/08/2020 06:55:52 -79.25,-134.92 115.01 08/08/2020 06:54:54 -79.24,-135.03 114.98 2.30 58
3 08/08/2020 07:46:37 79.26, 32.31 65.02 08/08/2020 07:45:52 79.26, 32.34 65.04 0.66 45
4 08/08/2020 08:37:21 -79.24,-160.27 115.00 08/08/2020 08:36:54 -79.26,-160.38 114.96 2.98 27
5 08/08/2020 09:28:06 79.25, 6.96 65.04 08/08/2020 09:27:52 79.27, 7.00 65.05 2.30 14
6 08/08/2020 10:18:51 -79.28, 174.11 114.92 08/08/2020 10:18:54 -79.28, 174.27 114.94 3.20 3
7 08/08/2020 11:09:36 79.29, -18.66 65.11 08/08/2020 11:09:53 79.26, -18.63 65.08 3.06 17
8 08/08/2020 12:00:20 -79.27, 148.75 114.91 08/08/2020 12:00:55 -79.26, 148.64 114.92 2.67 35
9 08/08/2020 12:51:05 79.29, -44.02 65.13 08/08/2020 12:51:53 79.28, -43.98 65.09 1.25 48
10 08/08/2020 13:41:49 -79.27, 123.40 114.89 08/08/2020 13:42:55 -79.28, 123.29 114.90 2.47 66
11 08/08/2020 14:32:41 79.52, -71.25 65.53 08/08/2020 14:33:46 79.50, -67.37 65.09 78.47 65
